El Embrujo Airport

Airport
ICAO code: 
SKPV
IATA Code: 
PVA
Summary
ICAO Region: 
CARSAM
Territory: 
Location: 
Providencia, Archipelago of San Andres, Providencia and Santa Catalina
Serving: 
Providencia
Elevation: 
29 ft
Coordinates: 
Aerial View: 
13° 21' 31.823" N, 81° 21' 32.968" W
Metar
Observation
SKPV 201600Z 01017KT 9999 SCT017 28/22 Q1014 RMK A2996
Station
Providencia Isla / El Embrujo
Date/Time
2022-01-20 16:00:00
Wind direction
10°
Wind speed
17 kts
Lowest cloud amount
scattered clouds
Temperature
28°C
Dew point
22°C
Humidity
69%
QNH
1014 hPa
Weather condition
n/a

El Embrujo Airport is an airport serving Providencia Island, Colombia.

Climatology

Tropical monsoon climate (Köppen climate classification Am)

Runways

Designator Length Width Surface Rops
17/35 1168 15 ASP No/No
Airport map: 
Aerial View: 

SKYbrary Partners:

Safety knowledge contributed by: